{"data":{"norad_id":53478,"epoch":"2026-05-24T19:30:21.380544Z","epoch_age_seconds":87926,"freshness":"FRESH","line1":"1 53478U 22099P   26144.81274746  .00001210  00000+0  87940-4 0  9990","line2":"2 53478  97.4491 264.7120 0000590 136.6441 223.4833 15.05649104207429","mean_motion":15.05649104,"eccentricity":5.9e-5,"inclination_deg":97.4491,"raan_deg":264.712,"arg_perigee_deg":136.6441,"mean_anomaly_deg":223.4833,"bstar":8.794e-5,"rev_number":20742,"period_min":95.639813830089,"perigee_km":549.1051710284,"apogee_km":549.92263383489,"semimajor_km":6927.6509024316,"source":"CELESTRAK","updated_at":"2026-05-25T13:38:17.432175Z"}}